Hourly Weather Rudawa

Today, 16 April, Friday

Time Temperature Precipitation Wind Pressure Humidity
00:00 -1°C° 0.1 mm 4 mps 745 mmHg 98%
01:00 -1°C° 0 mm 4 mps 745 mmHg 97%
02:00 -1°C° 0.3 mm 4 mps 745 mmHg 97%
03:00 -1°C° 0.3 mm 4 mps 744 mmHg 98%
04:00 -1°C° 0.3 mm 5 mps 744 mmHg 98%
05:00 -1°C° 0.5 mm 5 mps 744 mmHg 98%
06:00 -1°C° 0.5 mm 5 mps 744 mmHg 98%
07:00 -1°C° 0.5 mm 5 mps 744 mmHg 98%
08:00 -2°C° 0.5 mm 6 mps 744 mmHg 98%
09:00 -1°C° 0.5 mm 6 mps 744 mmHg 98%
10:00 -1°C° 0.5 mm 6 mps 744 mmHg 97%
11:00 -1°C° 0.8 mm 6 mps 744 mmHg 98%
12:00 -1°C° 0.8 mm 6 mps 744 mmHg 98%
13:00 -1°C° 0.8 mm 6 mps 744 mmHg 98%
14:00 -1°C° 0.7 mm 6 mps 744 mmHg 98%
15:00 -1°C° 0.7 mm 6 mps 745 mmHg 98%
16:00 -1°C° 0.7 mm 6 mps 745 mmHg 98%
17:00 0°C° 0.6 mm 5 mps 745 mmHg 98%
18:00 -1°C° 0.6 mm 5 mps 745 mmHg 98%
19:00 -1°C° 0.6 mm 4 mps 745 mmHg 98%
20:00 -1°C° 0.9 mm 4 mps 745 mmHg 98%
21:00 -1°C° 0.9 mm 4 mps 745 mmHg 99%
22:00 -1°C° 0.9 mm 4 mps 745 mmHg 99%
23:00 -1°C° 0.2 mm 4 mps 745 mmHg 99%

Tomorrow, 17 April, Saturday

Time Temperature Precipitation Wind Pressure Humidity
00:00 -1°C° 0.2 mm 4 mps 745 mmHg 98%
01:00 -1°C° 0.2 mm 4 mps 745 mmHg 98%
02:00 0°C° 0 mm 4 mps 745 mmHg 98%
03:00 0°C° 0 mm 4 mps 745 mmHg 98%
04:00 +1°C° 0 mm 3 mps 745 mmHg 99%
05:00 +1°C° 0.1 mm 3 mps 745 mmHg 99%
06:00 +1°C° 0.1 mm 3 mps 745 mmHg 99%
07:00 +2°C° 0.1 mm 3 mps 745 mmHg 99%
08:00 +2°C° 0.2 mm 3 mps 745 mmHg 98%
09:00 +2°C° 0.2 mm 3 mps 745 mmHg 98%
10:00 +3°C° 0.2 mm 3 mps 746 mmHg 98%
11:00 +3°C° 0.1 mm 3 mps 746 mmHg 98%
12:00 +3°C° 0.1 mm 3 mps 746 mmHg 98%
13:00 +3°C° 0.1 mm 3 mps 746 mmHg 98%
14:00 +4°C° 0 mm 2 mps 746 mmHg 98%
15:00 +4°C° 0 mm 2 mps 746 mmHg 98%
16:00 +4°C° 0 mm 2 mps 746 mmHg 98%
17:00 +4°C° 0 mm 2 mps 746 mmHg 98%
18:00 +5°C° 0 mm 1 mps 746 mmHg 98%
19:00 +5°C° 0 mm 1 mps 746 mmHg 99%
20:00 +5°C° 0 mm 1 mps 746 mmHg 99%
21:00 +5°C° 0 mm 1 mps 746 mmHg 99%
22:00 +4°C° 0 mm 1 mps 746 mmHg 99%
23:00 +4°C° 0 mm 1 mps 746 mmHg 99%

Day after tomorrow, 18 April, Sunday

Time Temperature Precipitation Wind Pressure Humidity
00:00 +3°C° 0 mm 0 mps 746 mmHg 99%
01:00 +3°C° 0 mm 0 mps 746 mmHg 99%
02:00 +3°C° 0 mm 0 mps 746 mmHg 98%
03:00 +4°C° 0 mm 1 mps 746 mmHg 98%
04:00 +4°C° 0 mm 1 mps 746 mmHg 98%
05:00 +5°C° 0 mm 1 mps 746 mmHg 96%
06:00 +5°C° 0 mm 1 mps 746 mmHg 95%
07:00 +5°C° 0 mm 1 mps 746 mmHg 93%
08:00 +6°C° 0 mm 2 mps 746 mmHg 87%
09:00 +7°C° 0 mm 2 mps 746 mmHg 80%
10:00 +9°C° 0 mm 3 mps 746 mmHg 73%
11:00 +9°C° 0 mm 3 mps 746 mmHg 72%
12:00 +9°C° 0 mm 3 mps 745 mmHg 70%
13:00 +9°C° 0 mm 3 mps 745 mmHg 68%
14:00 +10°C° 0 mm 3 mps 745 mmHg 68%
15:00 +10°C° 0 mm 2 mps 745 mmHg 67%
16:00 +12°C° 0 mm 2 mps 745 mmHg 67%
17:00 +10°C° 0 mm 2 mps 745 mmHg 70%
18:00 +10°C° 0 mm 1 mps 745 mmHg 73%
19:00 +9°C° 0 mm 1 mps 745 mmHg 77%
20:00 +9°C° 0 mm 1 mps 745 mmHg 80%
21:00 +8°C° 0 mm 1 mps 745 mmHg 83%
22:00 +7°C° 0 mm 1 mps 745 mmHg 86%
23:00 +7°C° 0 mm 1 mps 744 mmHg 86%

19 April, Monday

Time Temperature Precipitation Wind Pressure Humidity
00:00 +7°C° 0 mm 1 mps 744 mmHg 86%
01:00 +8°C° 0 mm 1 mps 744 mmHg 85%
02:00 +7°C° 0 mm 1 mps 744 mmHg 88%
03:00 +7°C° 0 mm 1 mps 744 mmHg 91%
04:00 +6°C° 0 mm 2 mps 743 mmHg 93%
05:00 +7°C° 0.1 mm 2 mps 743 mmHg 93%
06:00 +7°C° 0.1 mm 2 mps 743 mmHg 92%
07:00 +8°C° 0.1 mm 2 mps 743 mmHg 92%
08:00 +8°C° 0.2 mm 2 mps 743 mmHg 92%
09:00 +8°C° 0.2 mm 3 mps 743 mmHg 92%
10:00 +8°C° 0.2 mm 3 mps 743 mmHg 92%
11:00 +9°C° 0.2 mm 3 mps 743 mmHg 87%
12:00 +10°C° 0.2 mm 4 mps 743 mmHg 83%
13:00 +9°C° 0.2 mm 5 mps 742 mmHg 78%
14:00 +9°C° 0.1 mm 5 mps 742 mmHg 77%
15:00 +10°C° 0.1 mm 4 mps 742 mmHg 76%
16:00 +10°C° 0.1 mm 4 mps 742 mmHg 75%
17:00 +9°C° 0 mm 3 mps 742 mmHg 78%
18:00 +8°C° 0 mm 2 mps 742 mmHg 81%
19:00 +7°C° 0 mm 2 mps 742 mmHg 85%
20:00 +7°C° 0 mm 2 mps 742 mmHg 86%
21:00 +7°C° 0 mm 2 mps 742 mmHg 87%
22:00 +7°C° 0 mm 2 mps 742 mmHg 88%
23:00 +7°C° 0 mm 2 mps 742 mmHg 88%

20 April, Tuesday

Time Temperature Precipitation Wind Pressure Humidity
00:00 +7°C° 0 mm 2 mps 741 mmHg 88%
01:00 +6°C° 0 mm 2 mps 741 mmHg 88%
02:00 +6°C° 0 mm 2 mps 741 mmHg 90%
03:00 +6°C° 0 mm 2 mps 741 mmHg 91%
04:00 +5°C° 0 mm 2 mps 741 mmHg 92%
05:00 +6°C° 0.1 mm 2 mps 741 mmHg 90%
06:00 +8°C° 0.1 mm 1 mps 741 mmHg 87%
07:00 +8°C° 0.1 mm 1 mps 741 mmHg 84%
08:00 +9°C° 0.2 mm 1 mps 741 mmHg 79%
09:00 +10°C° 0.2 mm 1 mps 741 mmHg 74%
10:00 +9°C° 0.2 mm 2 mps 741 mmHg 69%
11:00 +10°C° 0.2 mm 2 mps 741 mmHg 68%
12:00 +10°C° 0.2 mm 3 mps 740 mmHg 67%
13:00 +10°C° 0.2 mm 3 mps 740 mmHg 66%
14:00 +10°C° 0.1 mm 3 mps 740 mmHg 69%
15:00 +10°C° 0.1 mm 4 mps 740 mmHg 71%
16:00 +8°C° 0.1 mm 4 mps 740 mmHg 74%
17:00 +9°C° 0 mm 3 mps 740 mmHg 77%
18:00 +8°C° 0 mm 3 mps 740 mmHg 79%
19:00 +7°C° 0 mm 2 mps 740 mmHg 82%
20:00 +7°C° 0 mm 2 mps 740 mmHg 83%
21:00 +6°C° 0 mm 2 mps 740 mmHg 84%
22:00 +5°C° 0 mm 2 mps 740 mmHg 85%
23:00 +5°C° 0 mm 2 mps 740 mmHg 85%

21 April, Wednesday

Time Temperature Precipitation Wind Pressure Humidity
00:00 +5°C° 0 mm 2 mps 741 mmHg 86%
01:00 +4°C° 0 mm 2 mps 741 mmHg 87%
02:00 +4°C° 0 mm 2 mps 741 mmHg 88%
03:00 +3°C° 0 mm 2 mps 741 mmHg 89%
04:00 +3°C° 0 mm 2 mps 741 mmHg 90%
05:00 +4°C° 0 mm 2 mps 741 mmHg 86%
06:00 +5°C° 0 mm 3 mps 741 mmHg 82%
07:00 +7°C° 0 mm 3 mps 741 mmHg 78%
08:00 +8°C° 0.1 mm 3 mps 741 mmHg 72%
09:00 +10°C° 0.1 mm 3 mps 741 mmHg 66%
10:00 +11°C° 0.1 mm 3 mps 741 mmHg 60%
11:00 +12°C° 0.1 mm 3 mps 741 mmHg 56%
12:00 +12°C° 0.1 mm 3 mps 741 mmHg 53%
13:00 +13°C° 0.1 mm 3 mps 741 mmHg 50%
14:00 +13°C° 0 mm 3 mps 741 mmHg 50%
15:00 +14°C° 0 mm 2 mps 741 mmHg 51%
16:00 +14°C° 0 mm 2 mps 741 mmHg 51%
17:00 +13°C° 0 mm 2 mps 741 mmHg 55%
18:00 +11°C° 0 mm 1 mps 741 mmHg 59%
19:00 +10°C° 0 mm 1 mps 741 mmHg 64%
20:00 +8°C° 0 mm 2 mps 741 mmHg 67%
21:00 +7°C° 0 mm 2 mps 741 mmHg 71%
22:00 +7°C° 0 mm 2 mps 741 mmHg 74%
23:00 +6°C° 0 mm 2 mps 741 mmHg 76%
Show more